TimeMDT,TemperatureF,Dew PointF,Humidity,Sea Level PressureIn,VisibilityMPH,Wind Direction,Wind SpeedMPH,Gust SpeedMPH,PrecipitationIn,Events,Conditions,WindDirDegrees,DateUTC
12:56 AM,50.0,32.0,50,29.63,-9999.0,NNE,3.5,-,N/A,,Unknown,20,2012-10-13 06:56:00
1:56 AM,48.9,32.0,52,29.62,-9999.0,Calm,Calm,-,N/A,,Unknown,0,2012-10-13 07:56:00
2:56 AM,50.0,33.1,52,29.60,-9999.0,West,3.5,-,N/A,,Unknown,280,2012-10-13 08:56:00
3:56 AM,41.0,32.0,70,29.62,-9999.0,WNW,6.9,-,N/A,,Unknown,290,2012-10-13 09:56:00
4:56 AM,46.9,33.1,59,29.62,-9999.0,WNW,12.7,-,N/A,,Unknown,300,2012-10-13 10:56:00
5:56 AM,50.0,33.1,52,29.65,-9999.0,NW,16.1,-,N/A,,Unknown,320,2012-10-13 11:56:00
6:56 AM,46.9,32.0,56,29.70,-9999.0,NW,15.0,-,N/A,,Unknown,320,2012-10-13 12:56:00
7:56 AM,50.0,33.1,52,29.72,-9999.0,NW,17.3,-,N/A,,Unknown,320,2012-10-13 13:56:00
8:56 AM,55.0,33.1,43,29.73,-9999.0,NW,19.6,-,N/A,,Unknown,310,2012-10-13 14:56:00
9:56 AM,61.0,33.1,35,29.74,-9999.0,NW,20.7,-,N/A,,Unknown,320,2012-10-13 15:56:00
10:56 AM,64.0,33.1,31,29.75,-9999.0,NW,17.3,-,N/A,,Unknown,320,2012-10-13 16:56:00
11:56 AM,66.0,33.1,29,29.73,-9999.0,NNW,18.4,-,N/A,,Unknown,330,2012-10-13 17:56:00
12:56 PM,69.1,33.1,26,29.73,-9999.0,NW,17.3,26.5,N/A,,Unknown,310,2012-10-13 18:56:00
1:56 PM,70.0,32.0,25,29.73,-9999.0,NW,18.4,29.9,N/A,,Unknown,310,2012-10-13 19:56:00
2:56 PM,70.0,32.0,25,29.74,-9999.0,NW,27.6,33.4,N/A,,Unknown,310,2012-10-13 20:56:00
3:56 PM,69.1,33.1,26,29.78,-9999.0,NW,27.6,31.1,N/A,,Unknown,310,2012-10-13 21:56:00
4:56 PM,63.0,33.1,33,29.81,-9999.0,NW,21.9,31.1,N/A,,Unknown,310,2012-10-13 22:56:00
5:56 PM,61.0,34.0,36,29.83,-9999.0,NW,10.4,-,N/A,,Unknown,310,2012-10-13 23:56:00
6:56 PM,60.1,34.0,38,29.86,-9999.0,NW,17.3,-,N/A,,Unknown,310,2012-10-14 00:56:00
7:56 PM,57.9,35.1,42,29.88,-9999.0,NW,16.1,-,N/A,,Unknown,310,2012-10-14 01:56:00
8:56 PM,55.9,35.1,45,29.90,-9999.0,NW,11.5,-,N/A,,Unknown,310,2012-10-14 02:56:00
9:56 PM,50.0,34.0,54,29.91,-9999.0,NW,13.8,-,N/A,,Unknown,310,2012-10-14 03:56:00
10:56 PM,53.1,36.0,52,29.91,-9999.0,NW,10.4,-,N/A,,Unknown,310,2012-10-14 04:56:00
11:56 PM,48.0,35.1,61,29.92,-9999.0,WNW,9.2,-,N/A,,Unknown,300,2012-10-14 05:56:00